Flag for Germany Weather past 2 weeks in Rathenow, Brandenburg, Germany

Now
37 °F

Passing clouds.


Feels Like: 37 °F
Forecast: 36 / 45 °F
Wind: 1 mph from West

Location: Neuruppin

Current Time: Mar 5, 2015 at 10:27:01 PM

Latest Report: Mar 5, 2015 at 9:00 PM


Visibility: 6 mi

Pressure: 30.55 "Hg

Humidity: 87%

Dew point: 33 °F

Location of RathenowLocation

Historic Weather in Rathenow — Graph

°F

Rathenow temperature yesterday

Maximum temperature yesterday: 42 °F (at 4:00 PM)
Minimum temperature yesterday: 33 °F (at 7:00 AM)
Average temperature yesterday: 37 °F

Past Weeks' High & Low Weather Summary

 TemperatureHumidityPressure
High49 °F (Feb 21, 11:00 AM)99% (Feb 23, 1:00 PM)30.57 "Hg (Feb 23, 1:00 PM)
Low26 °F (Feb 26, 5:00 AM)50% (Feb 26, 2:00 PM)29.35 "Hg (Feb 21, 11:00 AM)
Average37 °F83%29.90 "Hg
* Reported Feb 18 9:00 PM — Mar 5 9:00 PM, Rathenow, Weather by CustomWeather, © 2015

Note: Actual official high and low records may vary slightly from our data, if they occured in-between our weather recording intervals... More about our weather records

Advertising

Rathenow weather history for previous 24 hours

 ConditionsComfort  
Time TempWeatherWind HumidityBarometerVisibility
9:00 PM
Thu, Mar 5
37 °FPassing clouds.1 mph87%30.55 "Hg6 mi
8:00 PM38 °FOvercast.2 mph84%30.54 "Hg6 mi
7:00 PM41 °FOvercast.1 mph79%30.53 "Hg6 mi
6:00 PM42 °FOvercast.2 mph76%30.52 "Hg6 mi
5:00 PM42 °FOvercast.2 mph75%30.51 "Hg6 mi
4:00 PM42 °FOvercast.3 mph77%30.50 "Hg6 mi
3:00 PM40 °FOvercast.7 mph76%30.50 "Hg4 mi
2:00 PM42 °FOvercast.3 mph78%30.49 "Hg6 mi
1:00 PM41 °FOvercast.3 mph86%30.50 "Hg6 mi
12:00 PM40 °FOvercast.2 mph84%30.50 "Hg6 mi
11:00 AM38 °FLow clouds.3 mph88%30.49 "Hg6 mi
9:00 AM36 °FLow clouds.5 mph87%30.47 "Hg6 mi
8:00 AM35 °FOvercast.5 mph88%30.45 "Hg6 mi
7:00 AM35 °FOvercast.5 mph86%30.42 "Hg6 mi
6:00 AM36 °FOvercast.5 mph81%30.40 "Hg6 mi
5:00 AM37 °FOvercast.5 mph88%30.37 "Hg6 mi
3:00 AM37 °FLow clouds.2 mph94%30.29 "Hg6 mi
2:00 AM37 °FOvercast.2 mph94%30.27 "Hg6 mi
1:00 AM37 °FLow clouds.2 mph94%30.24 "Hg6 mi
12:00 AM36 °FOvercast.1 mph93%30.22 "Hg6 mi
11:00 PM
Wed, Mar 4
36 °FOvercast.3 mph92%30.20 "Hg6 mi
10:00 PM36 °FOvercast.3 mph92%30.18 "Hg6 mi
Weather by CustomWeather, © 2015

See weather overviewHow to use our weather pages